Temp
20 20 20 21 21 20 20 20 20 19 19 19 19 19 19 19 19 19 19 19 19 19 19 19 19 19 19 19 19 19 19 19 18 18 18 18 18 18 18 18 18 17 17 17 17 17 17 17 17 17 17 16 17 17 17 16 16 16 16 16 16 16 16 16 15 15 15 15 15 14 14 14 14 13
20 20 20 21 21 21 20 20 20 20 19 19 19 19 19 19 19 19 20 20 20 20 20 19 20 20 20 19 19 19 19 19 19 18 18 18 18 18 18 18 18 18 18 17 17 17 17 17 17 17 17 17 17 17 16 16 16 16 16 16 16 16 16 16 15 15 15 15 14 14 14 14 13 13
21 21 21 21 21 21 21 20 20 20 20 20 19 19 20 20 19 19 19 20 20 20 20 20 20 20 20 19 19 19 19 19 18 18 18 18 18 18 18 18 18 18 18 18 18 17 17 17 17 17 17 17 17 17 16 16 16 16 16 16 16 16 16 16 15 15 15 15 14 14 14 14 13 13
21 21 21 21 21 21 21 21 21 20 20 20 20 20 20 20 20 20 19 20 20 20 20 20 20 19 19 19 19 19 19 19 19 18 18 18 18 18 19 19 18 18 18 18 18 18 17 17 17 17 17 17 17 16 16 16 16 16 16 16 16 16 16 15 15 15 15 15 15 14 14 14 13 13
21 21 21 21 22 21 21 21 21 21 20 20 20 20 20 20 20 20 20 20 21 21 20 20 20 20 19 19 19 19 19 19 19 19 19 18 18 19 19 19 18 18 18 18 18 18 18 17 17 17 17 17 17 16 16 16 16 16 16 16 16 16 15 15 15 15 15 15 15 15 14 14 13 13
22 22 21 22 22 21 21 21 21 21 21 20 20 21 21 21 20 20 20 20 21 21 21 21 20 20 20 20 20 20 19 19 19 19 19 19 19 19 19 19 19 18 18 18 18 18 17 17 17 17 17 17 16 16 16 16 16 16 16 16 15 15 15 15 15 15 15 15 15 15 14 14 13 12
22 22 22 22 22 22 21 21 22 21 21 21 21 21 21 21 21 21 21 21 21 21 21 21 21 21 20 20 20 20 20 20 19 19 19 19 19 19 19 19 19 18 18 18 18 18 17 17 17 17 17 17 16 16 16 16 16 16 16 16 15 15 15 15 15 15 15 15 15 15 15 14 13 13
22 22 22 22 22 22 22 22 22 21 21 21 21 21 21 21 21 21 21 21 21 22 22 22 21 21 21 21 21 20 20 20 19 19 19 19 19 19 19 19 19 19 18 18 18 18 17 17 17 17 17 16 16 16 16 16 16 16 16 16 15 15 15 15 15 15 15 15 15 15 15 14 14 14
23 22 23 23 22 22 22 22 22 22 21 21 21 21 21 21 21 21 21 21 21 21 21 22 22 21 21 21 21 20 20 20 20 20 20 19 19 19 19 19 19 19 18 18 18 18 18 17 17 17 17 16 16 16 16 16 15 15 16 16 15 15 14 14 15 15 15 15 15 15 15 15 14 14
23 23 23 23 23 22 22 22 22 22 22 22 21 21 21 21 21 21 21 21 21 21 21 21 21 21 21 21 21 21 20 20 20 20 20 20 20 19 19 19 19 19 18 18 18 18 18 17 17 17 17 16 16 16 16 15 15 15 16 16 15 15 14 14 14 14 14 14 15 15 15 15 14 14
23 23 23 23 23 23 23 23 23 23 23 22 22 22 22 21 21 21 21 21 21 21 21 21 21 21 21 21 21 21 20 20 20 20 19 20 20 20 19 19 19 19 19 18 18 18 17 17 17 17 17 16 16 16 16 16 15 16 16 16 15 15 14 14 14 14 14 14 15 15 15 15 14 14
23 23 23 23 23 23 23 23 23 23 23 23 23 22 22 21 21 21 21 21 21 21 21 21 21 21 21 20 20 20 20 19 20 20 20 20 21 20 20 20 19 19 19 19 18 18 17 17 17 17 17 17 16 16 16 16 16 16 16 15 15 14 14 14 13 13 13 14 14 14 14 14 14 14
23 23 23 23 23 23 23 24 23 23 23 23 23 23 23 22 22 21 21 21 21 21 20 21 21 21 21 21 20 20 20 20 21 22 21 21 21 21 20 20 19 19 19 19 18 18 18 17 17 17 17 17 16 16 16 16 16 16 15 15 15 14 14 13 12 12 12 13 14 14 14 14 14 14
23 23 23 23 23 23 23 23 23 23 23 23 23 23 23 22 22 22 22 21 21 21 21 21 21 21 21 22 21 21 21 22 21 21 21 21 21 20 20 20 19 19 19 18 18 18 18 18 17 17 17 17 16 16 16 16 15 15 15 15 14 14 13 13 12 12 12 13 14 14 14 14 14 14
23 23 23 23 23 23 23 23 23 23 23 23 23 23 22 22 22 22 22 21 21 21 21 21 21 21 21 22 22 22 22 22 21 21 21 21 21 20 20 20 20 20 19 19 19 19 18 18 17 17 17 17 17 16 16 16 15 15 15 15 14 14 13 13 12 12 12 13 14 14 14 14 14 13
22 22 22 22 22 22 23 22 22 22 22 22 22 22 22 22 22 22 21 21 21 21 21 21 21 21 21 21 22 22 22 22 21 21 21 21 21 20 20 20 20 21 20 19 19 19 19 18 17 17 18 17 17 16 16 15 15 15 15 15 15 14 13 13 12 12 12 13 14 14 14 14 14 13
22 22 22 22 22 22 22 22 22 22 22 22 22 22 21 21 21 21 21 21 21 21 20 20 20 20 20 21 21 21 21 21 21 21 21 21 21 20 20 21 21 21 20 19 18 18 19 18 17 18 18 17 17 17 16 15 15 15 15 15 15 14 13 13 13 12 12 13 14 14 14 14 14 13
22 22 22 22 22 22 22 22 21 21 21 21 21 21 21 21 21 21 21 21 21 20 20 20 20 20 20 20 21 21 20 20 20 20 21 21 21 21 21 21 21 20 20 19 18 18 18 18 17 18 18 17 17 17 16 15 15 15 15 15 15 14 13 13 13 12 12 13 14 14 14 14 13 12
22 22 22 22 22 22 22 21 21 21 21 21 21 21 21 21 21 21 21 21 21 21 20 20 21 21 21 21 21 20 20 19 20 20 20 20 20 20 20 20 20 19 19 19 18 18 18 18 17 18 18 17 17 16 16 15 15 15 15 15 14 14 13 13 13 13 12 13 13 13 14 14 13 12
22 22 22 22 22 22 22 22 21 21 20 20 20 20 20 20 20 21 21 21 20 20 20 20 20 21 20 20 20 20 20 19 19 19 19 19 19 19 19 19 19 19 19 19 18 18 18 17 17 17 18 17 17 16 16 15 15 15 15 15 14 13 13 13 13 13 12 12 13 13 13 13 12 11
22 22 22 22 21 22 22 21 21 21 20 20 20 20 20 20 20 20 20 20 20 20 20 20 20 20 19 19 20 19 19 19 19 18 18 18 18 18 18 18 19 19 19 19 19 18 17 17 17 17 17 17 16 16 16 15 15 15 15 15 14 13 13 13 14 13 12 12 12 13 13 13 12 11
22 22 22 22 21 21 21 21 21 21 20 20 20 20 19 19 20 20 20 19 19 19 19 19 19 19 19 19 19 19 19 19 18 18 18 18 18 18 18 18 18 18 19 19 19 18 17 17 17 17 17 16 16 16 15 15 15 15 15 14 14 13 13 13 14 13 12 12 12 12 12 12 11 11
22 22 22 22 22 22 21 21 21 21 20 20 20 20 19 19 20 20 19 19 19 19 19 19 20 20 20 20 19 19 19 19 18 18 18 18 18 18 18 18 18 17 18 19 19 18 17 17 17 17 16 16 16 16 15 15 15 15 14 14 14 13 13 13 13 13 12 12 12 12 12 12 11 11
22 22 22 22 22 22 21 21 21 21 21 20 20 20 19 19 20 19 19 20 20 20 19 19 20 20 20 20 19 19 19 19 18 18 18 18 17 17 17 18 17 17 18 19 19 18 18 17 17 17 16 16 16 16 16 16 15 15 14 14 14 13 13 13 13 13 13 12 12 11 11 11 11 11
22 22 21 21 21 21 21 21 21 21 21 20 20 20 19 19 19 20 20 21 21 20 19 19 19 19 19 19 19 19 18 18 18 18 18 18 18 17 17 17 17 17 18 19 19 19 18 18 17 17 16 16 16 16 16 16 15 15 14 14 14 13 13 13 13 13 13 12 11 11 11 11 11 11
21 21 21 21 21 21 21 21 21 21 21 21 20 20 20 19 19 20 21 21 21 21 20 19 18 18 18 18 18 18 18 18 18 18 18 18 18 17 17 16 16 17 18 18 18 18 18 18 18 17 16 16 15 15 15 15 15 15 14 14 13 13 13 12 13 13 13 12 11 11 11 11 11 11
21 21 21 21 21 21 21 21 21 21 21 21 21 21 20 20 20 21 21 20 20 20 20 19 19 19 19 18 17 18 18 17 17 17 18 18 18 17 16 16 16 16 17 17 17 18 18 18 18 18 17 16 15 15 15 15 15 15 14 13 13 13 12 12 13 13 12 12 11 11 11 11 11 11
22 22 22 22 22 22 21 21 21 21 21 21 21 21 20 20 20 20 20 20 19 19 20 20 20 20 19 19 18 18 17 17 18 18 17 17 17 17 16 16 16 16 16 16 16 17 17 17 18 18 17 16 16 15 15 15 15 15 14 13 12 12 12 12 12 13 12 12 11 11 11 11 11 11
21 21 21 21 21 21 21 21 21 21 21 21 21 20 20 19 19 20 20 19 19 19 20 20 20 20 20 19 18 18 18 18 18 18 17 17 16 16 16 16 15 15 16 16 16 16 16 17 17 17 17 16 16 16 16 15 15 15 14 13 12 12 12 12 12 12 12 12 12 11 11 11 11 11
21 21 21 21 21 21 21 21 21 21 21 21 21 20 20 20 19 19 19 19 19 19 20 20 20 20 20 20 18 18 18 18 19 18 18 17 16 16 16 15 15 15 15 16 16 16 16 16 17 17 17 16 16 15 15 15 14 14 13 13 12 12 12 12 12 12 12 12 12 12 12 12 11 11
21 21 21 21 21 21 21 21 21 21 21 20 20 20 20 20 19 19 19 19 19 19 19 19 20 20 20 19 18 18 18 18 18 19 19 17 16 16 16 15 15 15 15 15 15 15 16 16 16 16 16 16 15 15 14 14 14 14 13 12 12 12 13 12 12 12 12 12 12 12 12 11 11 11
21 21 21 21 21 21 21 21 21 21 20 20 20 20 20 20 19 19 19 19 19 19 18 18 19 19 19 19 18 18 18 18 18 18 18 17 17 16 16 15 15 15 15 15 15 15 15 16 16 16 16 16 15 14 13 13 13 13 13 12 12 12 13 13 12 12 12 12 12 12 12 11 11 11
21 21 21 21 21 20 20 20 20 20 20 20 20 20 20 20 20 20 19 19 18 17 17 17 17 17 18 18 18 18 18 18 18 18 17 17 17 16 15 15 15 15 15 15 15 14 14 15 15 16 15 15 15 14 13 13 13 13 13 12 12 12 13 13 12 12 12 12 12 12 11 11 11 11
21 20 20 20 20 21 21 21 21 21 21 21 21 21 21 21 21 20 20 18 17 16 15 15 16 16 16 17 17 17 17 17 17 17 17 17 17 16 15 15 15 15 15 14 14 14 14 14 14 14 14 14 13 13 13 13 13 13 13 12 12 12 13 13 12 12 12 12 12 11 11 11 11 10
21 21 21 21 21 21 21 21 21 21 21 21 21 21 21 22 22 21 20 19 17 15 15 15 15 15 15 16 16 16 16 16 17 17 17 17 16 16 15 15 15 15 14 14 13 13 14 14 14 13 13 13 12 12 12 13 13 12 13 12 12 12 13 12 12 12 12 12 11 11 11 11 10 10
21 21 21 21 21 21 20 20 20 20 20 20 20 21 21 21 21 21 21 19 17 16 15 14 14 14 14 15 15 16 16 16 16 16 16 16 16 16 15 15 15 14 14 14 13 13 14 14 14 13 12 12 11 11 12 12 12 12 13 12 11 12 13 12 12 12 12 11 11 11 11 11 11 10
20 20 20 20 20 20 20 20 20 20 20 20 20 20 20 20 20 20 19 18 17 16 15 14 13 13 13 13 14 15 15 15 16 16 15 15 15 15 15 15 14 14 13 13 13 12 13 14 14 13 12 12 11 11 12 12 12 12 12 12 11 12 12 12 12 12 12 11 11 11 11 11 10 10
20 20 20 20 20 20 20 20 19 19 19 19 19 19 19 19 18 18 17 17 16 16 15 14 13 13 13 13 13 14 14 15 15 15 15 15 15 15 15 15 14 14 13 13 12 12 13 13 13 12 12 12 12 11 12 12 12 12 12 12 12 12 12 12 12 12 12 11 11 11 11 11 10 10
20 20 20 20 20 19 19 19 19 18 18 18 18 18 18 18 17 17 16 16 15 15 14 13 12 12 12 13 13 13 14 14 14 14 15 15 15 15 15 15 14 13 13 12 11 10 11 11 11 11 12 13 13 13 13 13 13 12 12 12 12 12 11 11 12 12 12 11 11 11 11 10 10 10
19 19 19 19 19 19 18 18 18 18 18 18 18 18 18 17 17 16 16 15 14 14 13 13 13 13 13 13 13 13 13 13 14 14 14 14 14 14 14 14 13 13 12 11 10 10 9 9 9 10 12 13 13 12 12 12 12 12 11 11 12 12 12 11 12 12 12 11 11 11 11 10 10 10
19 18 18 18 18 18 18 18 17 18 18 17 17 17 17 18 17 17 16 15 15 14 14 13 13 13 13 13 13 13 13 13 13 14 14 14 14 14 14 14 13 12 11 10 9 9 9 9 10 11 12 12 11 11 11 11 11 11 11 11 12 12 12 12 12 12 12 11 11 11 11 10 10 10
18 18 17 17 17 17 17 17 17 17 17 17 17 17 17 17 17 17 17 16 16 15 14 14 14 14 14 14 13 13 12 12 13 13 13 14 13 13 13 12 11 11 10 9 9 9 10 10 11 11 11 11 10 11 11 11 11 11 11 11 11 12 12 12 11 11 11 11 11 11 11 10 10 10
17 17 16 16 16 16 16 17 17 16 16 16 16 16 16 17 17 17 17 17 17 16 15 15 15 14 14 14 13 13 12 12 12 12 12 12 13 12 12 11 10 10 10 10 10 10 10 11 11 11 11 11 11 11 11 11 11 11 11 11 11 11 11 11 11 11 11 11 11 11 11 10 10 10
16 15 15 15 16 16 16 16 16 16 16 16 16 16 16 16 16 16 16 16 16 15 15 14 14 13 13 12 12 12 12 12 12 12 12 11 12 12 12 11 11 11 11 11 11 10 10 10 11 11 11 11 11 11 12 12 11 11 11 11 11 11 11 11 11 11 11 11 10 11 11 10 10 11
14 14 15 15 15 15 15 16 16 15 15 15 15 15 15 16 16 16 15 15 15 15 14 14 14 13 12 12 12 12 12 12 12 12 12 12 12 12 12 11 11 11 11 11 11 10 10 11 11 11 11 11 11 11 12 11 11 11 11 11 11 11 11 11 11 11 11 11 11 11 11 11 11 10
Height
1582 1583 1583 1583 1584 1585 1586 1586 1586 1587 1588 1588 1589 1589 1589 1589 1589 1589 1588 1587 1587 1588 1587 1587 1587 1588 1588 1588 1588 1588 1588 1589 1589 1589 1589 1589 1589 1589 1589 1589 1589 1589 1589 1589 1589 1588 1588 1588 1587 1587 1587 1586 1586 1586 1586 1585 1584 1583 1582 1582 1581 1580 1579 1578 1577 1576 1575 1574 1573 1573 1572 1571 1571 1570
1581 1581 1581 1582 1582 1583 1584 1584 1585 1585 1586 1586 1587 1587 1587 1587 1587 1587 1586 1586 1586 1586 1586 1586 1586 1586 1586 1587 1587 1587 1587 1588 1588 1588 1587 1587 1587 1587 1587 1587 1587 1587 1587 1587 1587 1586 1586 1586 1585 1585 1585 1584 1584 1584 1584 1583 1582 1582 1581 1580 1579 1578 1577 1576 1575 1574 1573 1572 1571 1570 1570 1569 1569 1568
1579 1579 1579 1580 1580 1581 1581 1582 1583 1583 1584 1584 1584 1585 1585 1585 1585 1585 1585 1584 1584 1585 1585 1585 1585 1585 1585 1586 1586 1586 1586 1587 1587 1586 1586 1586 1586 1586 1585 1585 1585 1585 1585 1585 1584 1584 1584 1584 1583 1583 1583 1582 1582 1582 1582 1581 1581 1580 1579 1578 1577 1576 1575 1574 1573 1572 1571 1570 1569 1568 1567 1567 1566 1566
1577 1577 1577 1577 1578 1579 1579 1580 1581 1581 1581 1582 1582 1582 1583 1583 1583 1584 1584 1583 1582 1583 1584 1584 1584 1584 1584 1584 1584 1584 1584 1585 1585 1585 1584 1584 1584 1584 1583 1583 1583 1583 1583 1582 1582 1582 1582 1582 1581 1581 1581 1581 1580 1580 1580 1580 1579 1578 1577 1576 1575 1574 1573 1572 1571 1570 1569 1567 1566 1566 1565 1565 1564 1564
1574 1574 1574 1574 1575 1577 1577 1577 1578 1578 1579 1579 1579 1580 1580 1580 1581 1582 1582 1581 1581 1582 1582 1582 1583 1583 1583 1582 1582 1582 1583 1583 1583 1583 1583 1583 1582 1582 1582 1581 1581 1581 1580 1580 1580 1580 1580 1580 1579 1579 1579 1579 1579 1578 1578 1578 1577 1576 1575 1574 1573 1572 1571 1569 1568 1567 1566 1565 1564 1564 1563 1563 1562 1561
1571 1571 1571 1572 1573 1574 1575 1575 1575 1576 1576 1577 1577 1577 1577 1578 1579 1579 1579 1579 1579 1579 1580 1580 1580 1581 1580 1580 1580 1580 1580 1581 1581 1581 1581 1581 1580 1580 1580 1579 1579 1578 1578 1578 1578 1578 1577 1577 1577 1577 1577 1577 1577 1577 1576 1575 1575 1574 1573 1572 1571 1570 1569 1567 1566 1565 1564 1563 1563 1562 1561 1560 1560 1559
1568 1569 1569 1569 1570 1572 1572 1572 1573 1573 1574 1574 1574 1574 1575 1575 1576 1577 1577 1577 1577 1577 1577 1578 1578 1578 1577 1577 1578 1578 1578 1579 1579 1578 1578 1579 1578 1578 1577 1577 1576 1576 1576 1576 1575 1575 1575 1575 1575 1575 1575 1575 1575 1574 1574 1573 1572 1572 1571 1570 1569 1568 1567 1566 1564 1564 1563 1562 1561 1560 1559 1558 1558 1557
1565 1566 1566 1567 1568 1569 1569 1570 1571 1571 1571 1571 1571 1572 1572 1573 1574 1574 1575 1575 1575 1575 1575 1575 1575 1575 1575 1575 1575 1576 1576 1576 1576 1576 1576 1576 1576 1575 1575 1574 1573 1573 1573 1573 1573 1572 1572 1572 1573 1573 1573 1573 1572 1572 1572 1571 1570 1570 1569 1568 1567 1566 1565 1564 1563 1562 1561 1561 1560 1559 1557 1556 1556 1555
1562 1563 1563 1564 1566 1566 1566 1567 1568 1568 1569 1569 1569 1569 1570 1570 1571 1572 1572 1572 1572 1572 1572 1572 1573 1573 1572 1572 1573 1573 1573 1573 1573 1573 1573 1573 1572 1572 1571 1571 1570 1570 1570 1570 1570 1570 1570 1570 1570 1570 1570 1570 1570 1570 1570 1569 1568 1568 1567 1566 1565 1564 1563 1562 1561 1561 1560 1559 1558 1557 1556 1555 1554 1553
1559 1560 1560 1561 1562 1563 1563 1564 1565 1565 1566 1566 1566 1566 1566 1567 1569 1569 1569 1569 1570 1569 1569 1570 1571 1570 1570 1569 1570 1570 1570 1570 1570 1570 1570 1570 1569 1568 1568 1567 1568 1568 1567 1567 1567 1567 1567 1568 1568 1568 1567 1567 1568 1568 1567 1567 1566 1565 1565 1564 1563 1562 1561 1560 1560 1559 1558 1557 1556 1555 1554 1553 1552 1551
1556 1557 1557 1558 1559 1559 1560 1560 1561 1562 1562 1563 1563 1563 1564 1565 1566 1567 1567 1567 1567 1567 1567 1567 1567 1568 1568 1567 1567 1568 1568 1568 1568 1567 1567 1565 1565 1565 1564 1564 1565 1565 1565 1564 1564 1565 1565 1565 1565 1565 1565 1565 1565 1565 1565 1564 1564 1563 1563 1562 1561 1561 1560 1559 1558 1557 1556 1555 1554 1553 1552 1551 1550 1550
1553 1553 1554 1555 1555 1556 1556 1556 1558 1559 1559 1560 1560 1560 1561 1563 1564 1564 1564 1564 1564 1564 1564 1564 1564 1564 1565 1565 1565 1565 1566 1564 1563 1563 1562 1561 1561 1562 1561 1561 1562 1563 1562 1562 1561 1562 1562 1563 1562 1562 1562 1562 1562 1562 1561 1561 1561 1561 1561 1560 1560 1559 1559 1558 1557 1555 1554 1553 1552 1551 1550 1550 1549 1548
1549 1549 1550 1551 1552 1552 1553 1553 1554 1554 1555 1556 1556 1557 1558 1559 1560 1561 1561 1561 1561 1561 1560 1560 1560 1560 1560 1560 1561 1561 1560 1558 1558 1559 1559 1558 1558 1559 1559 1559 1559 1560 1559 1559 1558 1558 1559 1559 1559 1559 1559 1559 1559 1559 1558 1558 1559 1559 1559 1558 1558 1557 1557 1556 1555 1554 1552 1551 1550 1550 1549 1548 1548 1547
1545 1546 1546 1547 1548 1549 1549 1550 1550 1551 1551 1552 1552 1554 1555 1556 1556 1556 1556 1556 1556 1556 1555 1554 1555 1554 1553 1554 1556 1555 1554 1554 1555 1556 1556 1554 1555 1556 1555 1555 1555 1556 1556 1555 1554 1554 1555 1556 1556 1556 1556 1556 1556 1556 1556 1557 1557 1557 1557 1556 1556 1555 1555 1554 1553 1552 1551 1549 1548 1548 1547 1547 1547 1546
1541 1542 1543 1543 1544 1545 1545 1545 1546 1547 1547 1548 1548 1550 1551 1551 1552 1552 1552 1552 1552 1551 1549 1548 1549 1548 1546 1548 1550 1550 1550 1551 1551 1551 1551 1551 1552 1552 1551 1550 1550 1551 1552 1552 1550 1551 1552 1552 1552 1552 1553 1553 1554 1554 1554 1555 1555 1555 1554 1554 1553 1553 1552 1552 1551 1550 1549 1547 1546 1546 1546 1546 1545 1545
1538 1538 1539 1539 1540 1540 1540 1541 1542 1542 1543 1544 1544 1545 1546 1547 1548 1548 1547 1547 1546 1546 1544 1543 1542 1541 1542 1543 1544 1545 1546 1547 1546 1547 1547 1547 1547 1547 1547 1546 1546 1547 1549 1549 1547 1547 1549 1550 1549 1549 1549 1550 1551 1551 1551 1552 1552 1552 1551 1551 1551 1550 1550 1550 1549 1548 1547 1545 1544 1544 1544 1544 1544 1543
1534 1534 1535 1535 1534 1535 1535 1536 1537 1537 1538 1539 1540 1541 1542 1542 1543 1543 1542 1541 1541 1541 1540 1538 1536 1537 1538 1539 1538 1540 1542 1542 1543 1543 1543 1543 1543 1543 1542 1542 1542 1544 1546 1546 1545 1544 1545 1546 1545 1545 1546 1547 1547 1547 1548 1548 1549 1548 1548 1548 1548 1547 1547 1547 1547 1546 1544 1543 1542 1542 1542 1542 1542 1542
1530 1530 1531 1530 1530 1531 1531 1531 1532 1532 1533 1534 1535 1536 1536 1537 1537 1537 1535 1535 1535 1536 1535 1533 1531 1533 1535 1534 1534 1537 1539 1539 1539 1539 1539 1540 1540 1539 1539 1539 1540 1541 1542 1543 1543 1541 1540 1542 1541 1540 1542 1543 1543 1543 1544 1545 1545 1545 1545 1544 1544 1544 1544 1544 1544 1543 1542 1541 1540 1540 1540 1540 1540 1540
1526 1526 1527 1526 1526 1526 1526 1527 1527 1528 1529 1530 1530 1530 1530 1531 1531 1530 1528 1528 1529 1530 1529 1528 1528 1529 1531 1530 1531 1533 1534 1533 1534 1535 1536 1537 1537 1536 1536 1536 1536 1536 1537 1539 1539 1535 1535 1538 1537 1536 1538 1539 1539 1539 1540 1540 1541 1541 1541 1541 1541 1541 1541 1541 1541 1541 1540 1539 1538 1538 1538 1538 1538 1538
1522 1523 1523 1522 1522 1522 1521 1522 1523 1524 1525 1526 1525 1524 1524 1525 1525 1522 1520 1522 1524 1524 1524 1525 1525 1526 1527 1527 1527 1528 1528 1528 1529 1531 1532 1532 1532 1532 1530 1529 1529 1529 1530 1533 1533 1531 1531 1533 1533 1533 1535 1535 1535 1535 1536 1536 1537 1538 1538 1538 1538 1538 1538 1538 1538 1538 1537 1536 1536 1536 1536 1536 1536 1536
1518 1518 1518 1518 1518 1517 1516 1518 1519 1520 1521 1520 1519 1519 1519 1520 1518 1514 1514 1518 1519 1519 1520 1521 1521 1522 1522 1522 1521 1521 1521 1522 1524 1526 1524 1524 1526 1525 1523 1521 1521 1522 1523 1526 1528 1527 1527 1528 1529 1530 1531 1532 1531 1532 1532 1533 1534 1534 1535 1535 1535 1535 1535 1534 1535 1535 1535 1534 1534 1534 1534 1534 1534 1534
1514 1514 1514 1514 1514 1512 1512 1513 1514 1516 1516 1515 1514 1514 1516 1516 1511 1507 1511 1516 1515 1514 1515 1516 1516 1514 1514 1513 1513 1513 1514 1516 1519 1518 1515 1517 1519 1518 1515 1514 1515 1517 1517 1519 1523 1523 1522 1523 1525 1526 1528 1528 1527 1528 1528 1529 1530 1531 1531 1532 1532 1531 1531 1531 1531 1532 1532 1532 1532 1532 1532 1532 1532 1533
1509 1509 1510 1510 1510 1508 1508 1509 1510 1510 1510 1509 1508 1510 1513 1510 1504 1505 1512 1514 1510 1507 1507 1507 1506 1504 1504 1505 1505 1505 1507 1509 1510 1510 1509 1511 1513 1510 1508 1510 1512 1511 1509 1512 1517 1517 1516 1518 1520 1521 1522 1522 1522 1523 1524 1525 1526 1527 1528 1529 1529 1529 1528 1528 1529 1529 1529 1530 1530 1530 1530 1531 1531 1531
1504 1505 1505 1506 1506 1506 1506 1506 1506 1505 1505 1504 1504 1505 1506 1504 1501 1506 1510 1507 1501 1499 1499 1498 1498 1496 1496 1498 1498 1499 1500 1501 1502 1503 1504 1505 1505 1503 1502 1504 1505 1504 1502 1505 1510 1511 1511 1513 1514 1515 1517 1517 1516 1517 1519 1520 1522 1524 1526 1526 1526 1526 1526 1526 1526 1526 1527 1527 1528 1528 1529 1529 1529 1529
1499 1500 1501 1501 1501 1502 1502 1501 1501 1500 1500 1500 1499 1498 1499 1499 1502 1505 1503 1498 1496 1495 1494 1493 1493 1491 1491 1492 1491 1492 1493 1494 1495 1496 1497 1497 1497 1495 1494 1496 1499 1498 1498 1501 1504 1505 1506 1507 1508 1510 1512 1512 1512 1513 1515 1516 1517 1519 1522 1524 1524 1524 1523 1523 1523 1524 1524 1525 1525 1526 1526 1527 1527 1527
1496 1497 1497 1496 1497 1497 1497 1497 1496 1496 1496 1495 1493 1492 1492 1495 1499 1499 1495 1493 1493 1492 1490 1489 1487 1485 1485 1484 1484 1485 1486 1488 1489 1490 1489 1488 1487 1485 1486 1491 1495 1495 1494 1496 1498 1499 1500 1501 1502 1504 1505 1506 1508 1510 1511 1512 1513 1514 1517 1519 1521 1522 1521 1520 1520 1521 1521 1522 1522 1523 1524 1525 1525 1525
1493 1494 1493 1492 1493 1493 1493 1493 1492 1492 1492 1491 1489 1489 1488 1488 1492 1493 1489 1488 1489 1489 1488 1485 1481 1478 1478 1478 1478 1479 1480 1483 1484 1483 1480 1479 1479 1478 1478 1481 1485 1488 1490 1492 1492 1492 1493 1494 1496 1497 1498 1500 1503 1505 1507 1508 1510 1510 1512 1514 1517 1519 1518 1517 1517 1517 1518 1519 1520 1521 1522 1522 1522 1523
1490 1490 1490 1489 1489 1489 1489 1489 1488 1487 1487 1486 1486 1486 1485 1483 1485 1486 1484 1482 1485 1485 1482 1477 1474 1471 1472 1473 1473 1474 1477 1478 1477 1474 1471 1470 1471 1471 1470 1471 1474 1478 1480 1481 1482 1484 1486 1487 1489 1491 1492 1494 1497 1499 1501 1503 1505 1506 1508 1510 1514 1515 1515 1514 1514 1514 1515 1516 1517 1518 1518 1519 1520 1520
1487 1487 1487 1487 1486 1486 1485 1485 1484 1483 1483 1482 1482 1482 1481 1479 1480 1480 1479 1478 1478 1476 1472 1470 1468 1466 1466 1467 1468 1470 1472 1470 1467 1464 1463 1461 1461 1462 1463 1465 1465 1465 1466 1466 1467 1471 1474 1478 1481 1484 1486 1488 1491 1493 1496 1498 1500 1502 1503 1506 1510 1511 1511 1511 1511 1511 1512 1513 1514 1515 1515 1516 1517 1517
1484 1484 1484 1484 1483 1482 1482 1481 1480 1479 1478 1478 1478 1478 1476 1474 1473 1474 1474 1473 1471 1468 1465 1464 1462 1460 1461 1461 1460 1461 1461 1458 1457 1456 1454 1450 1450 1452 1453 1454 1453 1453 1454 1455 1456 1458 1462 1468 1473 1475 1478 1481 1484 1487 1491 1494 1496 1498 1500 1503 1506 1507 1508 1508 1508 1508 1509 1510 1511 1512 1512 1513 1514 1514
1481 1481 1481 1480 1479 1479 1478 1477 1476 1475 1474 1473 1473 1472 1471 1469 1468 1467 1467 1466 1464 1460 1458 1458 1456 1454 1455 1454 1450 1449 1448 1446 1446 1447 1446 1444 1443 1443 1443 1443 1442 1442 1444 1446 1447 1449 1452 1458 1463 1466 1470 1474 1477 1481 1487 1491 1492 1494 1496 1499 1502 1503 1503 1504 1505 1505 1506 1507 1508 1509 1509 1510 1511 1512
1478 1477 1477 1477 1476 1475 1474 1473 1472 1471 1470 1469 1468 1467 1466 1464 1462 1460 1459 1457 1455 1453 1451 1450 1448 1447 1447 1446 1443 1440 1438 1436 1436 1437 1437 1436 1435 1434 1434 1433 1432 1433 1436 1438 1440 1443 1446 1450 1454 1457 1461 1466 1471 1476 1481 1485 1487 1489 1492 1494 1497 1499 1500 1501 1502 1502 1503 1504 1505 1506 1507 1508 1508 1509
1474 1474 1474 1473 1473 1472 1470 1469 1468 1467 1466 1465 1463 1462 1461 1459 1456 1454 1451 1449 1447 1446 1445 1443 1441 1440 1438 1438 1436 1433 1430 1428 1428 1430 1429 1427 1426 1426 1426 1424 1423 1424 1426 1428 1431 1435 1440 1445 1447 1450 1455 1461 1467 1472 1476 1478 1481 1484 1487 1490 1493 1494 1496 1497 1499 1500 1500 1501 1502 1503 1505 1505 1506 1506
1471 1471 1470 1470 1469 1467 1466 1465 1463 1462 1461 1459 1458 1456 1455 1453 1451 1448 1446 1443 1440 1439 1438 1436 1434 1432 1431 1429 1429 1426 1422 1419 1419 1420 1420 1418 1417 1417 1416 1414 1414 1415 1417 1419 1421 1426 1432 1437 1440 1445 1451 1457 1462 1467 1470 1472 1475 1479 1482 1485 1488 1490 1492 1494 1496 1497 1497 1498 1499 1501 1502 1503 1504 1504
1467 1467 1466 1465 1464 1463 1461 1460 1459 1457 1456 1454 1452 1450 1448 1447 1445 1442 1440 1437 1435 1433 1431 1429 1427 1425 1423 1422 1420 1419 1416 1413 1411 1410 1409 1408 1408 1407 1407 1406 1406 1408 1410 1413 1415 1418 1423 1427 1432 1438 1445 1450 1455 1460 1464 1467 1470 1475 1477 1480 1483 1486 1488 1491 1492 1493 1494 1495 1496 1498 1499 1501 1501 1502
1463 1462 1462 1461 1460 1459 1458 1457 1455 1453 1451 1450 1448 1445 1443 1441 1439 1436 1433 1431 1429 1426 1424 1422 1420 1418 1416 1414 1412 1410 1409 1407 1405 1403 1402 1401 1401 1401 1399 1397 1397 1398 1401 1403 1406 1409 1413 1416 1420 1425 1432 1439 1445 1451 1456 1461 1465 1469 1472 1475 1478 1482 1484 1487 1489 1490 1490 1492 1493 1495 1497 1498 1499 1500
1460 1459 1459 1458 1457 1456 1455 1453 1451 1450 1448 1446 1444 1441 1438 1435 1433 1430 1427 1424 1422 1419 1417 1415 1413 1411 1409 1407 1405 1403 1401 1400 1398 1397 1397 1397 1396 1395 1393 1392 1392 1394 1395 1396 1399 1401 1404 1406 1409 1413 1420 1428 1436 1444 1451 1457 1462 1465 1468 1471 1475 1478 1481 1483 1485 1485 1487 1488 1490 1492 1494 1496 1497 1497
1458 1457 1457 1456 1455 1453 1452 1451 1449 1448 1446 1444 1441 1438 1434 1431 1428 1425 1422 1419 1416 1413 1411 1409 1407 1405 1403 1401 1399 1396 1395 1393 1392 1390 1390 1391 1390 1389 1387 1387 1386 1386 1387 1387 1389 1392 1393 1396 1401 1405 1409 1417 1426 1436 1445 1452 1458 1461 1464 1468 1471 1475 1478 1480 1481 1482 1483 1485 1487 1489 1491 1493 1494 1495
1456 1456 1455 1454 1454 1452 1451 1450 1448 1446 1444 1441 1438 1435 1431 1428 1424 1420 1417 1414 1411 1408 1405 1403 1401 1399 1397 1395 1392 1390 1388 1386 1385 1384 1383 1384 1382 1381 1380 1380 1380 1380 1382 1383 1385 1388 1390 1393 1396 1398 1404 1412 1423 1433 1442 1451 1456 1459 1463 1467 1470 1472 1475 1477 1478 1479 1480 1482 1484 1486 1488 1490 1491 1492
1455 1454 1454 1454 1453 1452 1450 1449 1447 1445 1442 1440 1437 1434 1430 1426 1422 1418 1414 1410 1407 1404 1401 1399 1396 1394 1391 1388 1386 1383 1380 1379 1378 1377 1376 1376 1376 1376 1377 1378 1379 1380 1381 1383 1386 1389 1393 1396 1398 1402 1410 1419 1428 1437 1445 1452 1456 1459 1462 1465 1468 1470 1473 1475 1477 1477 1478 1479 1481 1483 1485 1487 1489 1489
1454 1453 1453 1452 1451 1450 1449 1447 1445 1443 1441 1439 1436 1433 1430 1427 1422 1417 1413 1409 1405 1401 1398 1395 1392 1389 1386 1383 1380 1377 1374 1372 1372 1371 1370 1370 1371 1372 1372 1374 1375 1376 1379 1382 1386 1391 1396 1402 1408 1414 1419 1424 1431 1439 1447 1452 1455 1459 1462 1465 1467 1470 1472 1474 1475 1476 1476 1477 1478 1480 1482 1484 1486 1487
1452 1452 1451 1451 1450 1449 1447 1446 1444 1442 1440 1438 1435 1432 1430 1427 1422 1418 1413 1409 1405 1401 1397 1394 1390 1386 1382 1378 1374 1371 1369 1368 1368 1368 1367 1367 1367 1368 1369 1371 1373 1376 1381 1385 1388 1394 1402 1409 1416 1421 1424 1427 1433 1442 1449 1453 1456 1460 1462 1464 1466 1469 1471 1472 1474 1474 1475 1475 1476 1477 1479 1481 1483 1484
1451 1451 1450 1449 1448 1447 1446 1444 1443 1441 1439 1437 1434 1431 1429 1426 1423 1418 1414 1410 1406 1402 1398 1394 1390 1386 1381 1377 1372 1369 1367 1366 1366 1365 1365 1365 1365 1366 1369 1374 1378 1383 1389 1394 1397 1402 1408 1414 1418 1422 1427 1431 1437 1443 1449 1454 1458 1460 1462 1464 1466 1468 1469 1471 1472 1472 1472 1472 1473 1475 1477 1478 1480 1481
1450 1450 1449 1448 1446 1445 1444 1443 1442 1440 1438 1436 1433 1431 1429 1426 1423 1419 1415 1411 1408 1405 1401 1397 1393 1389 1385 1381 1377 1372 1369 1368 1368 1366 1365 1365 1365 1367 1371 1376 1382 1388 1395 1400 1404 1409 1413 1416 1420 1425 1430 1435 1440 1445 1449 1454 1457 1459 1462 1463 1465 1467 1468 1469 1469 1469 1469 1470 1471 1473 1475 1476 1477 1479
1449 1448 1447 1446 1445 1444 1443 1443 1441 1439 1437 1435 1433 1431 1429 1427 1424 1421 1418 1415 1412 1409 1406 1402 1398 1394 1391 1388 1384 1381 1379 1378 1377 1374 1371 1370 1370 1372 1376 1380 1385 1390 1397 1402 1406 1410 1415 1419 1424 1429 1433 1437 1441 1446 1449 1452 1455 1458 1460 1462 1463 1465 1466 1467 1467 1467 1467 1468 1470 1472 1473 1474 1476 1477
Wind_Speed
18 18 18 17 15 15 16 16 17 17 16 15 14 14 15 16 17 18 19 20 19 17 17 17 15 14 14 13 13 14 14 13 13 13 13 12 12 11 12 12 11 12 12 13 13 13 14 14 14 14 14 14 14 14 14 14 14 15 17 19 21 22 22 22 21 21 20 20 20 19 18 17 16 16
18 19 19 18 17 16 18 18 18 19 18 17 16 16 17 17 19 20 21 21 18 15 16 16 14 14 14 14 14 15 15 14 15 15 14 13 13 13 12 12 12 12 13 13 13 13 14 15 15 15 15 15 15 15 15 15 15 17 18 20 21 22 22 22 22 22 22 21 20 20 19 18 17 16
18 19 20 20 19 18 19 21 21 20 19 19 18 18 19 20 20 20 21 23 20 16 17 17 15 15 15 15 16 17 16 16 17 17 16 15 15 14 14 13 13 13 13 13 14 14 14 15 15 16 16 16 16 15 15 16 17 18 19 21 22 22 22 23 23 23 22 21 20 20 20 19 18 17
20 21 21 22 21 19 20 22 23 23 21 21 21 21 21 23 23 20 21 24 22 19 18 18 17 17 17 18 19 18 17 17 18 17 17 16 16 16 15 14 14 14 14 14 15 15 15 15 16 16 16 16 16 16 16 17 18 19 20 21 22 22 22 22 22 21 20 19 19 20 20 19 18 17
22 22 23 24 22 21 21 22 24 25 24 24 24 24 24 25 25 24 23 24 23 21 20 20 20 20 20 21 21 20 18 18 18 18 17 16 16 17 16 15 15 15 15 16 16 16 16 16 17 17 17 17 17 17 17 18 19 20 21 22 22 22 22 21 20 19 18 18 18 19 19 18 17 16
24 24 25 26 24 23 23 23 24 26 27 27 27 26 26 26 26 26 25 25 25 23 22 22 23 23 23 23 22 21 21 19 18 18 17 16 17 17 17 16 16 16 16 17 17 17 17 17 18 18 18 18 18 18 19 19 20 20 21 22 22 22 21 20 18 17 16 16 17 18 18 18 17 17
26 26 26 27 26 26 26 26 25 27 28 30 31 30 29 28 27 27 27 26 26 24 22 23 24 25 25 24 23 22 21 20 19 19 19 18 18 19 19 18 18 17 18 18 18 18 18 18 19 19 19 19 19 19 20 20 20 21 21 22 22 21 19 18 16 15 14 15 17 18 19 19 19 19
28 28 28 27 27 28 29 28 28 28 30 31 33 33 32 31 30 29 29 28 27 26 25 24 24 25 25 25 24 23 23 22 22 22 21 21 20 20 20 20 19 19 19 19 20 20 19 19 19 19 19 20 20 20 20 20 20 21 21 21 21 20 18 16 15 14 14 15 17 18 19 19 20 20
29 30 30 28 28 29 31 30 30 30 31 32 34 34 34 34 34 33 32 32 31 31 29 27 25 26 27 27 26 26 26 25 25 25 24 23 22 21 21 22 21 20 20 21 22 21 21 21 21 21 21 21 20 20 20 20 21 21 22 22 21 18 16 15 14 14 14 14 16 17 17 18 19 19
31 31 31 30 30 31 32 32 31 31 31 32 34 35 36 35 35 35 35 35 34 35 33 31 29 28 29 29 29 28 28 28 28 27 26 25 25 24 24 23 22 22 22 23 23 23 22 22 22 22 22 21 21 20 21 21 22 22 22 22 20 18 15 14 14 13 12 12 13 14 15 16 17 17
33 33 33 32 32 33 33 33 32 32 32 33 34 35 36 36 36 37 37 37 37 37 36 35 34 33 32 32 32 30 30 30 30 30 30 30 28 27 27 25 23 23 23 24 24 24 23 23 23 23 22 22 21 21 21 22 23 23 23 22 20 18 15 14 13 12 12 12 11 12 13 14 15 15
35 35 34 35 34 34 34 34 33 33 33 34 34 35 35 36 37 37 38 39 39 39 39 38 36 35 35 35 34 33 33 34 35 33 33 33 30 28 28 27 24 23 24 25 25 25 25 25 24 24 24 24 23 23 23 24 23 23 23 22 21 19 16 14 14 14 14 13 11 11 12 13 13 14
36 36 36 36 36 36 36 35 35 35 35 35 36 35 35 36 37 37 38 39 40 41 42 41 40 39 39 38 37 37 38 38 37 34 33 33 31 28 29 29 27 26 25 26 27 27 26 26 25 25 26 25 24 24 24 24 23 22 22 22 21 19 16 15 15 16 16 14 11 11 11 11 12 13
39 38 38 38 38 37 38 38 38 38 37 38 37 36 37 38 38 38 39 39 40 41 43 44 43 43 44 42 40 41 41 40 39 37 37 36 33 31 31 31 30 29 28 29 30 29 27 26 26 26 26 26 25 25 25 25 23 22 22 22 20 18 16 15 16 18 17 14 11 11 10 10 11 11
42 41 41 40 40 40 40 40 40 40 40 40 40 39 39 40 40 41 41 42 41 42 44 45 45 46 47 45 43 44 43 42 42 42 40 38 37 36 36 34 32 31 30 31 32 30 27 27 27 27 26 26 26 27 26 24 23 23 22 21 19 17 15 15 17 18 17 14 11 10 10 10 10 10
43 43 43 43 43 43 43 42 42 42 42 42 42 42 42 43 43 43 43 44 44 44 45 46 47 48 48 46 46 46 45 44 45 44 43 42 41 40 40 39 36 32 30 30 33 31 28 27 28 28 27 26 25 26 25 24 24 23 22 20 18 16 15 16 18 19 17 13 10 9 9 8 8 7
44 45 45 45 45 45 45 45 45 44 44 44 44 44 45 46 46 46 46 47 47 47 48 49 50 49 48 47 47 46 45 45 46 46 46 45 44 45 44 42 39 35 32 32 33 32 29 28 30 30 27 25 24 25 25 25 25 23 21 20 18 16 15 16 18 19 16 12 9 8 8 7 6 5
45 45 45 46 46 46 46 46 46 46 46 45 45 46 47 47 48 49 49 50 50 50 51 52 53 51 49 49 48 46 45 46 47 46 46 45 45 46 45 43 41 39 37 34 34 34 31 29 31 31 28 25 25 25 26 26 25 24 21 19 17 16 16 17 18 18 15 12 10 8 8 7 5 2
45 45 46 47 47 47 47 47 47 47 47 46 47 47 48 49 49 50 52 52 51 52 52 53 53 52 51 51 50 49 49 49 48 47 45 44 44 45 45 45 45 44 41 37 36 38 35 31 32 32 28 26 25 26 26 26 25 24 21 19 17 17 17 17 18 17 13 11 10 8 7 7 4 1
45 46 46 47 47 47 47 47 47 47 47 47 48 49 50 50 50 52 53 52 52 53 53 53 53 53 52 52 51 51 51 51 50 48 47 46 46 46 47 48 48 47 44 41 40 40 37 34 34 32 29 27 27 28 28 27 25 23 20 19 18 19 18 18 18 16 12 11 10 9 8 7 3 1
45 45 46 46 47 47 48 47 46 47 47 48 49 50 50 50 52 55 55 53 53 54 54 53 54 54 53 53 54 53 53 53 51 50 50 49 48 49 50 51 51 49 47 44 41 41 40 38 35 33 30 29 29 29 29 28 25 23 20 19 20 20 20 19 18 15 13 11 10 9 9 7 4 3
44 44 44 45 46 47 47 46 46 46 47 49 50 50 50 50 54 57 54 52 53 54 54 53 54 55 55 55 56 56 56 56 54 54 55 53 51 51 52 53 51 50 50 46 42 41 42 40 37 35 32 30 31 31 30 28 26 24 21 21 22 22 21 19 17 15 13 12 11 10 10 8 6 6
43 44 44 44 44 45 45 45 45 46 48 50 51 50 49 51 56 56 51 50 53 54 54 55 55 56 56 56 57 57 58 58 58 58 59 56 53 54 54 53 50 49 51 49 45 44 45 43 40 38 35 33 33 33 31 30 27 25 23 23 23 23 21 19 17 15 14 13 11 10 10 10 8 7
44 44 43 43 43 43 43 43 44 45 47 49 50 50 50 52 54 52 48 51 54 55 56 56 57 58 58 57 58 58 58 59 60 61 61 59 58 57 56 54 52 51 52 50 47 46 45 44 43 41 38 36 35 33 32 31 29 26 24 25 25 23 22 20 18 16 16 14 11 10 10 11 10 9
44 44 43 44 43 43 43 43 43 44 46 48 50 51 51 51 50 48 48 50 53 54 56 55 56 57 58 58 59 59 59 60 61 62 62 62 61 61 59 56 53 54 55 53 50 48 46 46 45 43 40 39 38 34 30 30 29 26 25 26 25 23 23 21 19 17 17 15 13 11 11 12 11 10
43 42 42 41 41 40 39 38 38 40 41 43 47 49 50 50 47 45 46 48 49 52 55 55 55 56 56 56 57 58 58 57 58 61 63 64 64 65 62 58 55 56 56 55 54 52 49 47 46 44 44 43 40 36 33 29 26 25 26 27 26 24 23 22 20 19 18 16 14 13 12 12 12 11
37 36 35 35 34 34 34 34 35 35 36 39 42 44 46 49 47 43 45 47 47 48 51 54 57 58 58 57 56 56 56 55 56 58 61 64 65 65 64 61 58 57 57 58 57 55 53 50 48 46 45 44 40 39 38 32 27 26 26 26 26 26 25 23 21 19 18 17 16 15 14 14 13 12
30 30 31 32 32 33 35 36 37 37 38 40 42 43 46 49 48 46 48 49 48 48 50 53 56 59 59 58 57 55 54 54 56 58 60 61 63 64 65 64 60 56 57 60 61 58 55 54 50 47 47 44 41 41 40 35 30 27 25 24 26 27 26 24 22 20 19 19 18 17 16 15 13 12
31 32 33 34 35 36 38 39 40 41 41 43 44 44 46 48 47 47 49 49 49 51 53 54 56 57 58 58 58 56 54 54 57 57 58 59 61 62 63 62 60 58 59 64 65 61 59 57 52 49 48 45 41 41 39 34 30 27 25 25 27 27 26 26 24 21 21 21 19 17 17 15 14 13
32 33 34 35 36 37 39 41 42 43 43 44 45 46 47 49 50 49 50 50 52 54 55 55 55 56 56 57 58 57 57 58 59 58 60 62 62 62 62 62 63 62 62 65 67 65 62 59 54 52 50 45 42 42 39 33 29 26 24 25 27 27 27 28 26 24 22 20 18 17 17 16 15 14
26 26 28 30 32 34 35 37 39 40 41 43 44 46 48 50 51 52 52 52 54 56 57 56 57 57 57 58 60 60 60 61 60 59 61 62 61 61 61 61 64 65 65 67 69 67 64 62 58 54 52 48 45 43 38 32 29 26 24 25 27 27 27 27 27 26 22 19 19 19 18 17 16 14
23 24 25 26 28 29 31 32 34 35 37 39 40 42 44 46 48 49 49 50 52 54 55 55 57 58 57 58 61 62 63 63 63 62 61 62 63 64 62 60 63 65 65 65 66 65 62 61 59 55 52 49 46 42 37 32 28 27 26 26 27 28 27 26 25 25 22 21 21 20 19 18 16 14
24 25 25 26 27 29 30 32 34 35 37 39 41 42 44 45 47 48 48 49 50 50 49 50 51 53 54 55 57 59 62 63 63 62 61 62 64 63 62 61 64 65 65 66 67 64 60 57 56 54 50 46 43 40 37 33 30 28 27 26 26 28 29 27 24 22 21 21 20 20 19 19 16 13
24 26 27 28 29 30 32 33 35 36 37 39 40 41 42 43 44 45 46 46 45 44 44 45 47 48 49 50 52 55 59 60 60 59 60 62 63 64 64 65 66 66 65 65 64 62 61 58 55 51 47 43 39 37 37 36 33 29 27 25 25 27 27 27 24 21 20 20 20 21 21 19 15 13
25 25 25 25 26 27 28 29 30 31 32 33 35 37 39 40 42 44 45 44 42 40 40 41 43 45 46 47 48 50 53 56 58 58 58 59 61 63 63 64 66 66 63 60 59 61 62 61 56 51 47 44 40 37 37 37 33 30 27 25 24 25 25 24 23 21 21 21 22 23 22 18 15 13
20 20 20 20 21 22 23 25 27 28 30 32 34 36 39 40 41 43 45 44 43 41 39 38 39 41 44 45 46 46 48 52 55 55 54 55 58 61 63 65 67 66 63 61 60 62 64 64 62 59 55 49 43 39 38 37 33 30 28 25 22 23 23 22 21 21 21 23 23 23 20 17 14 12
15 16 16 17 19 21 23 25 27 29 30 31 32 33 35 37 38 39 40 40 40 40 38 36 35 36 38 41 43 44 46 49 51 53 54 54 55 57 60 62 62 60 59 60 60 62 66 67 65 63 60 54 47 42 39 34 30 30 30 26 21 21 21 22 22 22 21 21 21 20 17 14 11 10
14 15 16 17 19 21 23 24 25 25 26 28 31 33 34 35 36 36 36 36 36 36 36 35 35 35 35 36 38 40 43 45 46 49 52 53 54 56 59 61 61 61 61 61 61 64 67 68 67 65 63 59 52 45 38 32 28 30 30 26 21 20 21 23 23 22 19 18 18 16 14 11 9 9
13 14 15 17 18 19 19 20 21 24 26 28 29 30 31 32 32 32 32 32 32 32 32 32 33 33 34 34 35 36 39 40 41 43 46 49 52 54 56 57 58 56 54 53 54 56 59 62 63 64 61 56 49 41 33 27 25 26 24 22 22 22 22 23 24 21 18 16 15 14 12 10 10 10
11 12 14 15 15 16 17 18 21 23 23 23 23 24 25 27 27 27 27 27 27 27 27 27 28 29 30 31 31 32 34 36 36 36 38 41 42 43 44 46 47 47 45 45 47 49 50 51 52 53 50 43 33 26 23 20 20 19 18 19 23 23 22 22 23 21 18 15 14 14 13 11 11 10
10 11 12 13 14 15 16 18 20 19 17 18 20 21 23 25 25 24 23 22 22 21 21 21 21 21 22 23 25 27 30 33 33 34 36 39 37 38 41 44 44 43 42 42 42 40 40 40 41 40 37 30 23 21 20 19 18 17 17 17 20 21 21 21 21 19 15 14 14 14 13 12 13 12
10 11 11 12 13 14 14 16 17 15 15 19 21 20 21 23 23 23 24 25 24 24 22 21 20 18 18 18 19 19 20 24 27 29 32 34 30 25 25 26 28 30 31 33 36 36 36 35 32 28 25 23 21 21 20 17 15 16 16 16 17 18 19 19 18 16 14 14 15 15 14 14 15 14
9 10 11 12 13 13 13 14 14 12 14 20 21 19 20 21 20 19 23 25 26 26 25 23 22 21 21 20 18 14 10 11 15 16 16 16 14 13 15 19 23 26 28 30 34 35 33 29 25 23 22 21 21 20 18 14 14 16 16 15 16 17 17 16 15 14 15 16 17 16 16 16 15 14
9 10 11 12 13 12 12 13 12 9 13 19 19 16 18 20 18 17 20 22 23 24 24 22 22 21 19 17 15 13 10 5 3 6 10 14 17 21 26 29 31 32 32 33 33 30 27 25 23 21 21 20 19 17 15 16 17 18 16 15 15 15 15 14 13 15 17 18 17 17 16 15 13 12
9 10 10 11 12 11 11 12 9 7 12 18 16 14 16 19 17 16 19 20 20 21 22 23 24 23 20 19 21 22 21 20 21 24 28 31 32 34 36 37 37 36 34 33 31 29 27 24 21 19 18 17 17 16 17 18 19 18 16 15 14 13 13 13 13 16 18 19 17 15 14 13 12 11
Wind_Direction
234 236 236 239 236 225 220 216 209 211 219 225 231 235 241 248 246 239 234 236 241 242 241 246 251 247 244 247 253 259 264 270 273 277 284 286 281 276 273 269 264 260 258 255 253 251 248 248 251 255 260 265 269 274 279 285 290 295 299 301 304 307 309 310 310 311 313 313 312 311 309 306 302 299
235 237 237 238 236 225 221 220 213 211 215 220 229 239 243 246 249 248 246 248 250 245 240 245 250 249 248 250 253 256 261 265 266 270 277 281 279 274 268 266 263 261 260 258 257 256 253 251 253 256 260 264 267 271 276 282 287 291 295 298 302 304 305 306 307 308 309 310 310 309 307 305 304 301
238 239 238 238 237 230 225 224 221 218 218 219 225 235 242 245 247 248 250 253 255 250 245 245 246 246 246 249 254 256 258 259 260 266 275 280 278 271 265 261 258 256 257 258 258 258 257 256 256 257 260 263 266 269 274 280 284 289 293 297 300 300 300 301 303 305 306 306 306 305 304 303 303 302
240 241 241 240 239 235 231 227 226 226 225 225 225 229 237 243 245 245 245 250 254 255 253 250 248 247 247 248 252 255 255 254 256 264 273 277 273 266 262 258 254 252 253 253 254 255 256 257 258 259 260 262 264 267 273 279 283 288 293 296 297 297 299 301 302 303 302 303 303 301 299 299 301 302
241 241 243 243 241 238 235 231 229 228 229 230 230 230 233 239 244 244 243 249 255 258 257 254 251 248 248 250 252 254 254 252 255 263 268 269 266 263 260 256 251 250 250 251 252 253 254 255 257 259 260 261 263 267 272 278 282 286 291 294 296 298 300 302 302 301 300 301 301 299 298 299 302 304
244 243 244 245 244 240 237 234 232 230 230 232 234 235 235 238 243 245 247 251 255 257 256 255 253 250 249 251 252 255 256 255 257 261 262 262 263 263 260 256 251 249 249 250 252 252 253 254 256 257 258 258 261 267 272 277 280 284 288 292 296 301 303 302 300 299 300 301 299 296 296 299 302 303
247 247 246 246 246 244 241 238 235 233 232 234 237 239 240 241 243 246 249 252 255 257 256 254 253 252 252 254 255 257 258 258 257 257 258 259 259 259 257 255 251 247 246 247 249 251 252 254 255 256 256 257 261 266 270 275 277 280 285 292 298 303 304 300 297 296 297 297 294 292 293 296 300 302
248 249 249 248 248 247 246 243 240 236 234 235 239 241 243 244 245 246 248 251 254 256 256 255 253 252 254 256 257 258 257 255 254 255 257 257 255 253 252 253 252 249 247 246 246 248 250 252 255 255 255 257 260 264 268 272 274 277 284 292 299 303 300 295 292 293 294 292 289 287 288 292 297 301
249 250 251 252 250 250 250 249 247 243 239 238 239 243 245 246 247 248 249 250 252 253 253 254 253 253 254 255 254 254 254 252 251 252 254 254 254 252 250 249 250 249 248 247 245 245 247 249 252 254 254 255 257 261 266 269 271 275 283 291 297 299 293 287 288 289 292 290 286 284 286 289 295 300
250 251 252 253 252 252 252 252 252 251 248 244 242 243 245 247 248 249 250 251 251 252 252 252 251 250 251 254 253 252 252 252 253 254 255 255 253 252 250 247 247 247 248 249 248 246 247 249 251 253 254 253 254 258 262 266 268 274 282 288 293 293 285 280 284 288 295 295 289 287 287 289 294 300
248 250 252 253 253 253 253 254 254 254 254 252 250 248 248 248 249 250 252 253 252 252 253 253 251 248 248 251 253 254 254 253 254 255 256 255 252 250 250 249 247 246 248 249 249 247 246 248 249 251 252 251 251 254 258 262 265 271 279 286 290 289 281 278 286 296 307 308 300 294 290 289 293 298
249 249 250 251 252 254 255 256 256 255 256 257 257 256 254 251 251 252 254 255 255 254 254 254 253 251 248 247 249 251 250 248 251 253 254 255 255 253 253 253 251 249 249 250 250 248 246 246 247 248 249 248 248 250 254 258 262 269 278 284 287 284 279 281 291 302 310 311 304 298 293 289 291 294
254 253 252 252 253 253 255 256 258 258 258 258 259 260 260 257 255 256 256 256 256 256 255 255 255 253 251 248 246 246 246 248 253 255 253 255 259 257 255 255 253 251 250 250 249 248 247 247 248 247 248 249 250 250 253 256 260 270 278 281 281 279 276 282 290 298 306 308 303 299 295 291 290 290
257 257 257 257 257 257 257 257 257 258 259 259 260 262 262 262 261 260 259 258 258 258 258 257 256 254 253 251 247 247 250 253 254 254 253 256 259 257 254 253 251 248 247 248 248 247 247 248 248 247 247 249 251 252 254 256 261 271 277 277 274 270 272 281 286 293 301 303 301 299 297 292 287 286
261 261 261 261 261 261 260 260 259 259 259 259 260 261 262 263 263 263 262 262 261 260 260 260 258 256 256 257 255 252 253 253 252 253 254 255 256 254 252 252 251 248 245 245 247 248 246 246 248 248 247 248 250 251 252 254 259 269 274 271 265 262 268 278 282 289 296 297 298 300 295 288 284 285
263 263 264 264 264 264 264 264 263 263 262 261 261 262 262 262 263 264 264 264 263 262 262 262 260 259 260 261 260 257 256 255 254 254 253 254 255 254 253 253 254 254 250 247 249 250 247 244 246 247 246 247 249 251 251 251 257 265 269 265 259 258 266 273 278 285 291 293 295 294 289 285 282 283
264 265 266 266 266 267 267 267 266 266 266 265 264 263 262 261 262 262 263 264 264 264 265 264 264 264 263 264 265 265 263 259 256 254 254 255 255 254 255 256 258 258 254 248 249 251 247 243 243 245 245 245 247 249 248 249 255 262 264 260 256 257 263 269 276 281 287 290 290 286 284 281 275 273
265 266 266 267 268 269 269 268 268 268 268 268 267 266 265 263 262 262 262 262 262 262 262 263 264 266 266 266 269 270 267 262 259 259 259 260 260 260 262 264 262 258 255 251 250 250 247 241 239 242 244 243 244 246 245 248 255 259 258 256 255 255 258 266 273 277 281 285 283 279 277 271 263 261
265 266 267 268 270 271 271 270 270 270 270 269 269 269 268 267 266 265 265 264 263 262 262 263 265 267 268 269 271 271 268 265 264 264 265 266 266 265 265 263 260 256 255 252 250 250 248 242 239 241 243 243 244 244 244 247 253 254 253 253 253 251 255 263 268 269 274 279 275 271 269 264 259 265
264 265 266 268 269 270 271 272 272 272 271 269 269 269 269 269 269 269 269 268 267 266 266 266 268 269 270 270 271 271 268 266 266 265 264 262 260 259 258 257 256 256 254 251 248 249 248 243 240 241 242 242 243 243 243 246 249 249 249 251 250 249 252 258 260 260 267 271 265 261 261 258 254 259
265 266 266 267 269 270 271 272 272 272 270 269 268 268 268 269 270 272 272 269 268 268 268 268 269 269 269 269 269 269 267 265 264 261 258 256 255 254 253 253 253 254 253 250 247 247 247 244 241 241 241 241 242 242 243 246 247 246 246 249 250 248 249 251 251 254 261 262 253 248 249 246 239 246
267 268 268 269 269 271 273 273 273 273 270 268 267 266 265 266 268 271 270 268 269 270 269 268 268 268 267 266 265 265 264 263 261 258 256 256 255 252 251 252 253 253 253 251 246 245 245 243 240 239 240 240 240 241 243 245 245 242 242 247 248 245 244 245 245 249 256 253 242 236 234 232 233 241
268 269 270 271 271 273 275 276 275 275 271 269 269 266 263 263 267 270 269 270 273 273 271 270 270 270 269 267 266 264 262 261 259 257 257 256 253 250 251 251 249 248 250 250 245 241 241 241 238 236 235 236 237 239 240 242 242 241 242 247 247 241 239 240 242 247 250 244 233 227 226 227 231 239
268 269 270 271 272 274 277 278 277 277 274 272 272 267 262 262 267 268 269 271 273 271 270 271 272 272 272 271 269 266 262 259 257 257 257 255 251 249 249 248 245 246 251 253 247 241 239 238 238 236 233 234 236 237 238 238 238 239 242 247 246 238 234 236 240 245 244 236 227 224 223 225 232 239
270 270 272 274 275 276 278 280 280 279 278 277 275 270 266 264 265 266 270 273 274 272 271 270 269 270 270 268 268 266 262 259 257 256 256 255 251 249 247 245 244 246 251 254 250 245 241 238 237 236 233 233 236 238 238 236 234 236 241 246 245 237 234 235 238 241 239 231 225 225 224 224 232 241
272 274 276 278 280 281 282 283 283 283 283 281 278 277 275 268 265 271 277 277 275 274 273 271 269 268 267 265 265 264 262 260 258 257 256 256 253 249 246 245 245 247 251 253 251 246 242 240 239 236 232 230 232 235 236 231 229 231 234 239 240 237 235 236 236 236 234 227 226 229 226 223 230 239
276 279 281 282 284 284 284 284 285 284 285 284 282 285 283 275 272 278 281 276 274 275 276 274 272 271 269 266 264 264 263 262 261 259 258 257 254 250 247 245 245 249 253 253 251 247 244 242 241 239 235 230 228 232 233 229 227 229 231 233 235 235 234 234 234 233 230 227 229 229 225 224 228 233
276 278 278 279 281 282 282 282 283 283 283 283 283 287 285 279 278 282 282 278 274 274 274 274 272 273 272 269 267 266 265 266 267 265 262 258 253 250 248 246 245 248 251 248 246 246 245 242 241 241 238 231 228 231 232 229 228 230 233 233 232 232 232 232 232 231 227 228 229 228 226 227 227 228
270 271 273 276 278 280 281 281 282 283 284 285 285 286 284 281 281 284 284 282 278 276 276 277 276 277 279 276 270 267 267 268 267 265 262 258 252 249 248 245 243 246 248 244 242 242 242 240 240 241 237 232 229 231 231 230 229 230 231 233 234 234 232 230 230 229 227 229 231 229 227 225 221 224
268 270 273 276 277 279 280 281 282 283 284 285 286 285 284 282 282 283 283 282 280 279 280 282 281 283 286 282 274 269 269 269 267 265 264 260 253 249 246 242 240 242 243 242 241 240 238 236 236 237 236 231 228 229 229 228 228 227 228 232 236 236 232 230 229 228 228 231 232 226 221 218 216 222
270 271 272 273 275 277 278 279 281 282 283 284 285 285 285 284 284 284 283 282 280 279 279 281 281 283 285 282 277 273 273 272 270 268 265 259 254 251 246 240 238 239 239 239 239 238 236 233 231 233 234 229 224 224 224 223 224 224 226 232 237 238 235 232 229 229 230 231 228 221 215 213 217 224
276 276 275 275 276 277 278 279 281 282 283 284 285 286 286 287 287 287 286 284 283 281 282 282 282 282 282 279 275 272 273 273 273 271 265 259 256 252 244 237 236 236 235 235 235 233 232 230 229 230 232 228 223 218 214 215 222 224 224 231 239 241 238 234 229 228 228 226 223 217 212 213 218 224
277 277 278 279 280 281 282 283 284 285 285 286 286 286 286 285 285 286 285 285 284 285 286 286 284 283 282 280 277 273 271 272 273 272 267 262 257 249 241 237 237 235 232 231 230 227 225 224 225 227 227 224 222 218 213 215 224 224 222 230 239 239 235 231 226 221 220 219 216 211 210 215 219 222
278 279 281 283 284 286 287 288 288 289 289 289 289 289 288 288 288 287 287 286 286 287 288 287 286 286 284 282 280 276 272 271 272 271 269 265 257 248 241 239 239 236 231 227 223 220 218 217 217 217 216 214 214 215 217 221 224 221 220 228 235 234 231 226 220 215 215 215 210 208 211 217 219 221
282 284 286 288 289 291 292 293 294 294 295 296 296 296 296 295 294 292 291 289 288 286 285 283 283 284 285 284 282 279 275 273 271 268 264 258 251 244 240 238 237 235 229 224 218 215 214 213 210 206 203 201 201 204 212 218 219 217 217 219 223 225 222 217 214 212 210 208 206 208 214 217 216 223
287 289 292 295 296 297 298 300 301 303 304 305 305 304 302 299 298 296 295 295 294 292 289 285 282 279 279 280 280 278 275 273 269 265 261 255 250 244 240 239 238 234 227 222 217 213 211 210 207 201 194 192 192 197 205 212 215 214 211 208 213 219 215 209 208 207 204 204 207 212 217 217 216 230
290 294 298 301 303 305 307 309 310 311 313 313 313 313 313 311 309 306 304 302 300 298 295 292 288 283 280 278 278 277 275 273 271 269 266 259 253 246 241 237 235 231 225 221 216 211 208 208 204 198 191 187 189 195 201 205 211 212 207 203 209 216 210 204 204 203 201 204 212 217 218 216 221 236
293 298 303 308 309 311 312 313 314 317 320 321 322 323 322 321 318 316 312 308 304 301 298 294 291 290 287 283 280 278 276 274 274 274 270 262 256 251 246 241 236 230 224 219 213 207 205 204 200 195 189 185 185 190 193 197 204 207 205 204 207 209 207 203 202 201 202 205 210 214 216 219 227 233
297 301 307 309 308 309 311 315 320 325 327 329 331 332 331 328 324 321 317 313 309 307 304 300 296 294 291 288 284 281 278 276 276 277 273 265 258 253 247 242 235 226 218 211 203 198 197 196 193 189 186 185 188 191 191 194 200 201 201 204 204 201 202 204 203 203 205 206 207 209 211 218 228 225
299 304 307 307 305 308 314 322 329 333 335 339 345 347 348 346 342 336 329 322 317 312 307 303 300 296 293 290 288 284 281 277 276 276 274 268 263 259 254 246 235 224 213 204 196 191 189 187 184 182 181 182 184 181 177 186 197 195 194 203 204 199 201 205 207 208 208 205 205 207 207 215 226 228
305 309 311 310 311 316 324 332 337 341 346 354 357 358 359 1 1 0 356 349 343 334 325 318 314 308 302 297 290 284 282 281 279 277 275 271 269 266 260 249 233 217 205 193 184 180 177 175 174 175 173 165 155 153 163 180 193 193 193 200 203 202 204 207 208 211 210 205 203 204 206 214 225 231
311 317 319 318 320 324 330 337 342 348 358 3 3 2 4 6 11 19 23 22 19 15 7 360 353 347 340 329 315 303 294 286 279 276 274 272 266 256 242 224 202 186 176 167 161 159 160 161 162 159 152 144 146 162 176 185 192 196 200 201 200 201 204 204 205 211 212 205 201 202 206 214 222 229
317 325 331 332 331 330 331 336 341 348 359 4 5 6 7 9 15 28 35 35 35 33 30 24 20 17 12 4 355 347 329 294 277 273 272 266 248 212 178 160 151 145 141 139 141 146 149 147 142 139 142 150 161 173 183 193 202 208 211 210 208 208 209 209 211 215 212 205 204 207 210 216 224 231
330 338 343 342 339 334 331 335 340 347 356 2 7 11 12 13 18 28 34 37 40 43 44 44 44 40 34 28 30 39 51 68 115 133 130 134 138 137 134 132 133 134 133 132 133 134 134 133 136 145 154 158 161 170 186 204 215 218 220 221 220 219 217 217 218 217 211 209 211 214 217 224 232 237
339 341 342 342 342 340 335 336 344 355 358 2 9 15 15 17 23 29 34 39 45 52 58 62 63 63 65 68 72 78 85 95 104 111 114 116 117 119 122 125 127 128 129 129 126 124 124 128 137 145 148 150 160 177 194 209 218 222 225 226 225 221 222 227 229 223 217 215 217 222 227 233 235 236